Location: Fontaine
(47.9083°N, 1.1429°W)
Time: 12:30:27
(UTC+00:00)

Daily predictions for brighter satellites

Satellite Brightness Start Highest point End
(mag) Time Altitude Azimuth Time Altitude Azimuth Time Altitude Azimuth
H-2A R/B 3.2 17:25:19 10° ESE 17:29:06 21° ENE 17:32:58 10° NNE
Meteor 1-21 Rocket 4.4 17:24:06 10° SSE 17:29:26 51° E 17:34:51 10° NNE
Cosmos 2344 4.4 17:21:19 10° NW 17:30:05 59° NE 17:42:09 10° ESE
Cosmos 1939 Rocket 3.3 17:27:07 10° SE 17:30:58 42° ENE 17:34:47 10° N
H-2A R/B 2.1 17:26:52 10° NNE 17:31:14 61° ESE 17:35:28 10° S
USA 229 DEB 4.0 17:24:46 10° NW 17:31:57 64° NE 17:39:33 10° SE
USA 229 4.0 17:24:52 10° NW 17:32:03 64° NE 17:39:39 10° SE
Cosmos 44 3.4 17:28:11 10° SSW 17:32:59 75° SE 17:38:09 10° NE
CZ-3B R/B 1.8 17:31:12 10° NW 17:33:28 51° NNE 17:38:59 10° ESE
Cosmos 1602 Rocket 4.2 17:29:46 10° SSE 17:33:41 34° E 17:37:40 10° NNE
SeaSat 1 3.3 17:30:30 10° NNE 17:35:17 51° NW 17:40:03 10° SW
SJ 16-02 1.6 17:32:00 10° SSW 17:36:24 73° WNW 17:40:49 10° NNE
Feng Yun 1-1 Rocket 4.5 17:31:11 10° SE 17:36:26 48° ENE 17:41:50 10° N
Cosmos 158 Rocket 4.5 17:31:22 10° NNW 17:36:45 72° WSW 17:42:06 10° SSE
Cosmos 2112 Rocket 4.0 17:31:56 10° NNW 17:37:11 72° ENE 17:42:22 10° SSE
FengYun 1-2 T 4.3 17:33:34 10° SSE 17:39:10 85° ENE 17:44:51 10° NNW
Cosmos 990 Rocket 4.1 17:34:48 10° S 17:39:54 59° ESE 17:45:00 10° NNE
YAOGAN 1 3.7 17:37:11 10° ESE 17:40:30 22° ENE 17:43:49 10° NNE
Cosmos 1844 Rocket 3.1 17:35:51 10° SW 17:41:29 68° WNW 17:47:08 10° NNE
Cosmos 1892 Rocket 4.4 17:37:18 10° SSW 17:41:32 53° WNW 17:45:48 10° N
H-2A R/B 3.2 17:38:12 10° S 17:42:19 60° WSW 17:46:37 10° NNW
Aureole 3 Rocket 3.5 17:39:41 10° NNE 17:42:32 27° ENE 17:45:53 10° SE
Cosmos 1818 4.3 17:37:47 10° WSW 17:43:05 53° NW 17:48:29 10° NNE
COSMOS 2406 3.4 17:38:03 10° NNW 17:43:41 50° NE 17:49:16 10° SE
Cosmos 2082 Rocket 3.1 17:38:54 10° NNW 17:43:51 29° NE 17:48:44 10° ESE
Cosmos 1844 3.9 17:39:50 10° SSW 17:45:31 76° WNW 17:51:19 10° NNE
NOSS 3-1 (A) 4.1 17:40:17 10° NW 17:47:37 69° NE 17:56:11 10° SE
Cosmos 1703 3.4 17:43:52 10° S 17:47:38 52° E 17:51:25 10° NNE
X-37B 1.5 17:45:03 10° W 17:48:07 46° S 17:51:13 10° ESE
IRS-1C Rocket 4.4 17:44:58 10° SE 17:49:55 44° ENE 17:54:55 10° N
ISS -3.1 17:47:47 10° W 17:51:04 44° N 17:53:50 13° ENE
Cosmos 1812 Rocket 3.6 17:47:26 10° N 17:51:45 54° ENE 17:56:00 10° SSE
Meteor 2-1 Rocket 4.4 17:48:01 10° NNW 17:53:34 77° W 17:59:03 10° S
ATLAS 2AS CENTAUR R/B 4.3 17:47:36 10° WNW 17:54:01 26° NNW 18:00:15 10° NE
Okean O Rocket 2.2 17:51:18 10° S 17:55:42 64° WSW 18:00:06 10° NNW
ATLAS 5 CENTAUR R/B 3.8 17:53:34 10° NW 17:56:25 16° NNW 17:59:33 10° NNE
CZ-4 R/B 1.9 17:56:21 10° SE 17:59:59 34° ENE 18:03:36 10° N
Iridium 4 Rocket 3.8 17:54:56 10° N 18:00:07 45° E 18:04:51 10° SSE
ERS-2 3.1 17:58:55 10° NE 18:02:02 26° E 18:05:07 10° SSE
SKYMED 2 3.7 17:57:50 10° NNE 18:02:07 53° E 18:06:21 10° S
CSL-04 Rocket 4.5 18:00:00 10° ESE 18:04:37 29° ENE 18:09:20 10° N
CZ-4C R/B 4.1 18:02:16 10° NW 18:06:42 20° N 18:11:44 10° NE
Okean-O 3.0 18:03:22 10° SE 18:07:30 39° ENE 18:11:39 10° N
Cosmos 1340 2.5 18:07:23 10° S 18:11:06 78° E 18:14:53 10° NNE
USA 234 4.0 18:05:52 13° ENE 18:11:18 41° N 18:17:20 10° WNW
Cosmos 1346 Rocket 3.5 18:08:12 10° SSE 18:11:42 32° E 18:15:12 10° NNE
Cosmos 2278 Rocket 2.5 18:06:25 10° S 18:11:46 45° ESE 18:17:10 10° NE
Cosmos 858 Rocket 4.5 18:08:34 10° S 18:13:49 70° ESE 18:19:04 10° NNE
Cosmos 1953 Rocket 4.5 18:11:43 10° SE 18:15:17 25° E 18:17:58 14° NE
CZ-2C R/B 3.2 18:10:30 10° SSE 18:16:00 80° ENE 18:21:47 10° NNW
SAR-Lupe-4 4.2 18:17:50 18° NE 18:20:01 33° E 18:23:16 10° SSE
COSMOS 2455 4.4 18:15:49 10° W 18:21:00 29° NW 18:26:13 10° NNE
Cosmos 44 Rocket 4.5 18:17:59 10° SSE 18:21:55 24° ESE 18:23:19 21° E
Cosmos 405 2.9 18:18:26 10° N 18:22:00 87° E 18:25:30 10° S
Cosmos 1455 4.4 18:19:04 10° NNW 18:22:27 30° W 18:25:49 10° SSW
NOSS 2-1 (E) 3.5 18:20:57 10° SW 18:24:11 54° NW 18:26:47 17° NNE
Cosmos 1627 Rocket 4.4 18:20:56 10° S 18:27:09 82° E 18:33:30 10° N
Cosmos 1626 Rocket 4.5 18:23:31 10° SSW 18:27:48 50° WNW 18:32:10 10° N
TELKOM 3 2.6 18:26:19 10° WNW 18:28:30 71° NNE 18:28:34 70° NNE
ARGOS 3.4 18:24:30 10° SE 18:29:37 46° ENE 18:34:45 10° N
Cosmos 1869 4.0 18:26:44 10° N 18:30:11 29° ENE 18:30:11 29° ENE
Meteor 2-19 Rocket 4.4 18:25:17 10° S 18:31:22 66° E 18:37:29 10° NNE
PSLV R/B 4.0 18:29:15 10° NNE 18:33:25 56° ESE 18:37:32 10° S
Cosmos 1898 Rocket 4.0 18:29:37 10° SW 18:34:48 60° WNW 18:39:59 10° NNE
Cosmos 372 Rocket 4.0 18:30:22 10° S 18:35:28 59° ESE 18:39:58 14° NNE
Cosmos 1092 Rocket 4.2 18:29:57 10° SSW 18:36:05 72° W 18:42:15 10° N
SAR-Lupe-1 4.2 18:34:04 22° NNE 18:36:07 51° E 18:39:37 10° S
CZ-4B R/B 2.2 18:33:49 10° N 18:37:02 50° WNW 18:40:09 10° SSW
CZ-2C R/B 3.4 18:33:45 12° NE 18:38:21 32° E 18:43:19 10° SSE
Cosmos 1328 4.4 18:34:31 10° SSW 18:38:26 57° WNW 18:42:21 10° N
CZ-2D R/B 4.2 18:36:44 10° S 18:40:28 49° W 18:44:12 10° NNW
Cosmos 2150 Rocket 4.5 18:40:06 10° SSE 18:44:47 36° ESE 18:45:58 32° ENE
MOS 1 Rocket 3.3 18:40:39 10° N 18:44:55 70° WNW 18:49:14 10° SSW
Cosmos 1048 Rocket 4.0 18:41:10 10° NNW 18:46:12 53° ENE 18:49:36 20° SE
Cosmos-2242 3.1 18:42:22 10° NNW 18:46:40 78° W 18:50:59 10° S
COSMO-SKYMED 1 3.4 18:45:56 10° N 18:50:10 51° WNW 18:54:22 10° SSW
Meteor 1-11 4.2 18:45:47 10° SSW 18:51:28 84° W 18:57:08 10° N
Cosmos 1758 Rocket 4.0 18:50:04 10° SSW 18:54:30 65° WNW 18:59:00 10° N
USA 290 3.7 18:52:00 10° NW 18:54:59 38° WSW 18:57:58 10° S
Cosmos 1937 Rocket 4.3 18:52:12 10° SW 18:57:23 53° WNW 19:02:38 10° NNE
SL-08 RB Rocket 3.6 18:59:19 31° SE 19:01:14 58° ENE 19:05:40 10° N
CSL-04 Debris 4.0 18:58:01 10° SSE 19:03:25 84° ENE 19:08:50 10° NNW
Cosmos 2221 4.2 19:02:04 10° N 19:03:42 21° NNE 19:03:42 21° NNE
Helios 1A Rocket 3.1 19:02:08 10° S 19:06:16 72° WSW 19:10:25 10° NNW
H-2A R/B 2.4 19:03:01 10° S 19:08:02 64° WSW 19:13:14 10° NNW
Cosmos 389 Rocket 4.2 19:04:32 10° N 19:05:56 22° N 19:05:56 22° N
Cosmos 1833 Rocket 3.6 19:02:52 10° NW 19:08:15 48° WSW 19:13:35 10° S
Cosmos 1125 Rocket 3.9 19:04:29 10° S 19:08:40 41° SE 19:08:40 41° SE
Cosmos 1809 Rocket 4.4 19:04:04 10° S 19:10:03 61° E 19:16:08 10° NNE
Cosmos 2298 Rocket 3.9 19:06:44 10° S 19:11:59 67° ESE 19:13:35 44° NE
Cosmos 1689 Rocket 3.5 19:13:25 36° WSW 19:13:25 36° WSW 19:15:30 10° SW
Cosmos 2266 Rocket 3.9 19:08:09 10° S 19:14:14 59° E 19:20:15 10° NNE
SJ 16-02 4.3 19:14:28 10° WNW 19:15:50 11° NW 19:17:12 10° NNW
YAOGAN 1 3.7 19:12:11 10° S 19:16:20 44° W 19:20:30 10° NNW
NOSS 2-2 (C) 4.4 19:13:33 10° NW 19:18:45 61° NE 19:20:07 50° E
HJ-1C 4.2 19:20:23 50° W 19:20:23 50° W 19:23:32 10° NNW
In-Cosmos 22 Rocket 4.1 19:18:08 10° S 19:23:54 80° E 19:29:35 10° NNE
X-37B 2.9 19:21:53 10° WSW 19:23:54 20° SW 19:23:54 20° SW
Cosmos 1943 Rocket 4.3 19:23:03 10° SSE 19:23:18 11° SSE 19:23:18 11° SSE
ISS -1.9 19:24:54 10° WNW 19:26:49 29° NW 19:26:49 29° NW
Cosmos 2082 Rocket 2.7 19:22:42 10° NNW 19:28:20 60° WSW 19:33:41 11° S
Cosmos 1241 Rocket 4.4 19:25:10 10° SSW 19:31:39 76° ESE 19:33:16 53° NE
CZ-4 R/B 3.8 19:31:51 10° SSW 19:35:05 23° W 19:38:17 10° NW
ERS-2 4.3 19:33:12 14° NNW 19:35:30 25° WNW 19:38:32 10° WSW
MetOp-A 4.1 19:37:46 69° NNE 19:37:46 69° NNE 19:42:37 10° NNW
Meteor 2-21 4.3 19:33:44 10° S 19:39:49 85° E 19:46:00 10° N
NOSS 2-2 (E) 4.4 19:36:29 10° NW 19:42:01 89° SW 19:43:31 58° SE
ATLAS 5 CENTAUR R/B 4.1 19:40:13 10° NNW 19:42:29 15° N 19:42:29 15° N
Cosmos 2315 Rocket 3.8 19:39:41 10° N 19:45:57 81° E 19:46:34 72° SE
Cosmos 883 Rocket 4.4 19:40:32 10° N 19:46:46 85° W 19:50:12 28° S
ATLAS 2AS CENTAUR R/B 4.0 19:41:13 10° NW 19:47:35 27° NNE 19:48:21 26° NNE
Meteor 2-14 Rocket 4.3 19:41:46 10° S 19:47:50 87° W 19:53:59 10° N
Ariane Rocket 4.3 19:51:36 29° N 19:51:36 29° N 19:54:04 10° N
IRS-1A Rocket 4.5 19:51:16 63° N 19:51:16 63° N 19:56:13 10° NNW
USA 234 3.6 19:53:13 47° NNE 19:53:34 47° NNE 19:59:46 10° NW
Cosmos 2278 Rocket 3.6 19:50:49 10° WSW 19:56:00 35° NW 19:59:05 21° N
CZ-4C R/B 3.9 19:51:50 10° NW 19:56:57 28° NNE 19:56:57 28° NNE
Cosmos 1655 Rocket 4.5 19:51:27 10° SSW 19:57:33 58° WNW 20:03:42 10° N
USA 281 4.3 20:04:50 30° NNE 20:04:50 30° NNE 20:08:33 10° NNW
Cosmos 44 Rocket 4.1 19:58:11 10° SW 20:02:05 49° W 20:02:05 49° W
CZ-2C R/B 3.7 20:15:10 20° N 20:18:45 44° WNW 20:24:03 10° SW
